Flag for Canada

Past Weather in Port Coquitlam, British Columbia, Canada — Yesterday and Last 2 Weeks

Now
71 °F

Mild.


Feels Like: 77 °F
Forecast: 67 / 52 °F
Wind: 2 mph from South

Location: P. Meadows Coastal Station

Current Time: Jul 10, 2020 at 7:52:47 pm

Latest Report: Jul 10, 2020 at 7:00 pm


Visibility: N/A

Pressure: 30.14 "Hg

Humidity: 46%

Dew Point: 50 °F

Location of Port CoquitlamLocation

Past Weather in Port Coquitlam — Graph

°F

Port Coquitlam Temperature Yesterday

Maximum temperature yesterday: 66 °F (at 4:00 pm)
Minimum temperature yesterday: 56 °F (at 5:00 am)
Average temperature yesterday: 61 °F

High & Low Weather Summary for the Past Weeks

 TemperatureHumidityPressure
High76 °F (Jun 25, 6:00 pm)100% (Jul 3, 7:00 am)30.22 "Hg (Jul 3, 7:00 am)
Low50 °F (Jul 5, 5:00 am)45% (Jul 5, 5:00 pm)29.85 "Hg (Jun 28, 6:00 pm)
Average61 °F77%30.02 "Hg
* Reported Jun 25 6:00 pm — Jul 10 6:00 pm, Port Coquitlam. Weather by CustomWeather, © 2020

Note: Actual official high and low records may vary slightly from our data, if they occured in-between our weather recording intervals... More about our weather records

Port Coquitlam Weather History for the Previous 24 Hours

Scroll right to see more
 ConditionsComfort  
Time TempWeatherWind HumidityBarometerVisibility
6:00 pm
Fri, Jul 10
72 °FMild.3 mph51%30.16 "HgN/A
5:00 pm72 °FMild.1 mph50%30.18 "HgN/A
4:00 pm71 °FMild.2 mph51%30.19 "HgN/A
3:00 pm70 °FMild.3 mph53%30.20 "HgN/A
2:00 pm69 °FMild.1 mph56%30.21 "HgN/A
1:00 pm64 °FMild.2 mph66%30.22 "HgN/A
12:00 pm63 °FMild.3 mph67%30.22 "HgN/A
11:00 am63 °FMild.1 mph67%30.20 "HgN/A
10:00 am60 °FCool.1 mph74%30.20 "HgN/A
9:00 am59 °FCool.2 mph78%30.19 "HgN/A
8:00 am58 °FCool.3 mph82%30.17 "HgN/A
7:00 am56 °FCool.1 mph93%30.15 "HgN/A
6:00 am54 °FCool.1 mph95%30.14 "HgN/A
5:00 am51 °FCool.1 mph95%30.11 "HgN/A
4:00 am51 °FCool.1 mph94%30.10 "HgN/A
3:00 am52 °FCool.1 mph94%30.09 "HgN/A
2:00 am53 °FCool.1 mph93%30.07 "HgN/A
1:00 am55 °FCool.2 mph91%30.07 "HgN/A
12:00 am56 °FCool.3 mph89%30.06 "HgN/A
11:00 pm
Thu, Jul 9
57 °FCool.2 mph83%30.05 "HgN/A
10:00 pm58 °FCool.2 mph83%30.04 "HgN/A
9:00 pm62 °FCool.2 mph84%30.02 "HgN/A
8:00 pm64 °FMild.6 mph82%30.01 "HgN/A
7:00 pm65 °FMild.5 mph74%30.01 "HgN/A
Weather by CustomWeather, © 2020

See weather overview